Volver al catálogo

STARLINK-32810

ActivoComunicacionesVLEO
NORAD 63037·PAYLOAD·🇺🇸 United States

Lanzado Feb 18, 2025 desde Cape Canaveral Space Force Station

Loading…

Próximos Pases (próximas 24 horas)

TLE

ActualizadoSource: CelesTrak SupGP

Época: Sep 14, 2026, 20:41 UTC

1 63037C 25034J   26257.86229167 -.00022869  00000+0 -67576-3 0  2575
2 63037  53.1565  96.2260 0001269  91.2079 329.0352 15.34397276    19

Sigue STARLINK-32810 en tiempo real con AllMySat

Download on the App Store